Printer-friendly version

IAU Minor Planet Center

Minor Planet Center

MPEC 2006-F35 : 2006 FX

The following Minor Planet Electronic Circular may be linked-to from your own Web pages, but must not otherwise be redistributed electronically.


Read MPEC 2006-F34 Read MPEC 2006-F36


M.P.E.C. 2006-F35                                Issued 2006 Mar. 25, 21:34 UT

     The Minor Planet Electronic Circulars contain information on unusual
         minor planets and routine data on comets.  They are published
   on behalf of Commission 20 of the International Astronomical Union by the
          Minor Planet Center, Smithsonian Astrophysical Observatory,
                          Cambridge, MA 02138, U.S.A.

                  Supported in part by the Brinson Foundation
                  Supported in part by the TABASGO Foundation
             Prepared using the Tamkin Foundation Computer Network

                              MPC@CFA.HARVARD.EDU
          URL http://cfa-www.harvard.edu/iau/mpc.html  ISSN 1523-6714

                                    2006 FX

Observations:
     K06F00X* C2006 03 24.49157 16 39 18.10 +13 25 29.6          16.7 V EF035703
     K06F00X  C2006 03 24.49985 16 39 12.67 +13 27 41.2          16.7 V EF035703
     K06F00X  C2006 03 24.50821 16 39 07.16 +13 29 53.3          16.7 V EF035703
     K06F00X  C2006 03 24.51651 16 39 01.72 +13 32 04.0          16.6 V EF035703
     K06F00X  C2006 03 25.11519 16 33 05.88 +16 01 45.6          16.4 R EF035A50
     K06F00X  C2006 03 25.11626 16 33 05.24 +16 02 00.7          16.4 R EF035A50
     K06F00X  C2006 03 25.11708 16 33 04.73 +16 02 12.5          16.4 R EF035A50
     K06F00X  C2006 03 25.11763 16 33 04.40 +16 02 20.7          16.4 R EF035A50
     K06F00X  C2006 03 25.11898 16 33 03.61 +16 02 39.9          16.4 R EF035A50
     K06F00X  C2006 03 25.23905 16 31 58.35 +16 32 59.1          16.7 R EF035I77
     K06F00X  C2006 03 25.24065 16 31 57.36 +16 33 21.5          16.6 R EF035I77
     K06F00X  C2006 03 25.24112 16 31 57.10 +16 33 28.2          16.7 R EF035I77
     K06F00X  C2006 03 25.24334 16 31 55.71 +16 33 59.9          16.6 R EF035I77
     K06F00X  C2006 03 25.35322 16 30 54.40 +16 57 37.6          16.8 R EF035734
     K06F00X  C2006 03 25.35407 16 30 53.90 +16 57 49.6          16.8 R EF035734
     K06F00X  C2006 03 25.35493 16 30 53.38 +16 58 01.6          16.6 R EF035734
     K06F00X  C2006 03 25.35581 16 30 52.89 +16 58 13.4          16.7 R EF035734
     K06F00X  C2006 03 25.35685 16 30 52.27 +16 58 27.7          16.7 R EF035734
     K06F00X  C2006 03 25.38618 16 30 37.00 +17 05 14.3          16.5 R EF035673
     K06F00X  C2006 03 25.38984 16 30 34.38 +17 06 11.7          16.3 R EF035651
     K06F00X  C2006 03 25.39032 16 30 34.09 +17 06 18.4          16.2 R EF035651
     K06F00X  C2006 03 25.39059 16 30 34.41 +17 06 14.9                 EF035673
     K06F00X  C2006 03 25.39080 16 30 33.80 +17 06 24.9          16.3 R EF035651
     K06F00X  C2006 03 25.39127 16 30 33.52 +17 06 31.6          16.3 R EF035651
     K06F00X  C2006 03 25.39521 16 30 31.70 +17 07 18.5                 EF035673
     K06F00X  C2006 03 25.40100 16 30 28.31 +17 08 38.1                 EF035673
     K06F00X  C2006 03 25.44477 16 30 01.83 +17 18 40.7          16.7 V EF035703
     K06F00X  C2006 03 25.44676 16 30 00.61 +17 19 07.8          16.6 V EF035703
     K06F00X  C2006 03 25.44866 16 29 59.53 +17 19 33.6          16.7 V EF035703
     K06F00X  C2006 03 25.45054 16 29 58.41 +17 19 59.1          16.7 V EF035703
     K06F00X  C2006 03 25.49336 16 29 33.07 +17 29 36.4          16.6 V EF035703
     K06F00X  C2006 03 25.50024 16 29 29.00 +17 31 08.9          16.6 V EF035703
     K06F00X  C2006 03 25.50708 16 29 24.93 +17 32 40.0          16.5 V EF035703
     K06F00X  C2006 03 25.51392 16 29 20.94 +17 34 11.8          16.6 V EF035703
     K06F00X  C2006 03 25.78927 16 26 51.79 +18 35 52.7          17.0 V EF035E12
     K06F00X  C2006 03 25.78957 16 26 51.61 +18 35 56.7          16.8 V EF035E12
     K06F00X  C2006 03 25.78990 16 26 51.43 +18 36 00.7          16.8 V EF035E12
     K06F00X  C2006 03 25.79020 16 26 51.25 +18 36 04.5          16.8 V EF035E12
     K06F00X  C2006 03 25.79049 16 26 51.07 +18 36 08.6          16.7 V EF035E12
     K06F00X  C2006 03 25.79232 16 26 50.06 +18 36 31.6          16.8 V EF035E12
     K06F00X  C2006 03 25.79262 16 26 49.88 +18 36 35.4          16.8 V EF035E12
     K06F00X  C2006 03 25.79292 16 26 49.70 +18 36 39.0          16.6 V EF035E12
     K06F00X  C2006 03 25.79322 16 26 49.56 +18 36 43.4          16.8 V EF035E12
     K06F00X  C2006 03 25.79352 16 26 49.34 +18 36 46.8          16.8 V EF035E12
     K06F00X  C2006 03 25.79495 16 26 48.55 +18 37 04.8          16.8 V EF035E12
     K06F00X  C2006 03 25.79640 16 26 47.72 +18 37 23.4          16.7 V EF035E12
     K06F00X  C2006 03 25.79742 16 26 47.11 +18 37 36.3          16.7 V EF035E12
     K06F00X  C2006 03 25.79818 16 26 46.71 +18 37 46.1          16.7 V EF035E12
     K06F00X  C2006 03 25.79860 16 26 46.46 +18 37 51.6          16.7 V EF035E12

Observer details:
651 Grasslands Observatory, Tucson.  Observer J. E. McGaha.  0.62-m f/5.1
    Newtonian reflector + CCD.
673 Table Mountain Observatory, Wrightwood.  Observer J. Young.  0.6-m f/16
    Cassegrain + CCD.
703 Catalina Sky Survey.  Observer S. M. Larson.  Measurers E. C. Beshore,
    E. J. Christensen, G. J. Garradd, A. R. Gibbs, A. D. Grauer, R. E. Hill,
    R. A. Kowalski, S. M. Larson, R. H. McNaught.  0.68-m Schmidt + CCD.
734 Farpoint Observatory.  Observer G. Hug.  Measurer K. Dobbs.  0.7-m
    reflector + CCD.
A50 Andrushivka Astronomical Observatory.  Observers O. Gerashchenko,
    Y. Ivashchenko.  0.6-m reflector + CCD.
E12 Siding Spring Survey.  Observer R. H. McNaught.  Measurers E. C. Beshore,
    E. J. Christensen, G. J. Garradd, A. R. Gibbs, A. D. Grauer, R. E. Hill,
    R. A. Kowalski, S. M. Larson, R. H. McNaught.  0.5-m Uppsala Schmidt + CCD.
I77 CEAMIG-REA Observatory, Belo Horizonte.  Observers C. Jacques, E. Pimentel.
    Measurer C. Jacques.  0.30-m f/3.0 Schmidt-Cassegrain + CCD.

Orbital elements:
2006 FX                                             PHA, Earth MOID = 0.0015 AU
Epoch 2006 Mar. 6.0 TT = JDT 2453800.5                  MPC
M  16.99815              (2000.0)            P               Q
n   0.53856219     Peri.  299.37239     -0.50845749     -0.86103445
a   1.4961626      Node   181.30932     +0.86079128     -0.50854155
e   0.4386105      Incl.   24.62470     -0.02256883     +0.00227263
P   1.83           H   19.9           G   0.15
From 49 observations 2006 Mar. 24-25.

Ephemeris:
2006 FX                  a,e,i = 1.50, 0.44, 25                  q = 0.8399
Date    TT    R. A. (2000) Decl.     Delta      r     Elong.  Phase     V
2006 03 16    19 14.05   -43 56.6    0.0624   0.977    72.3   104.2    17.7
2006 03 26    16 25.03   +19 18.5    0.0870   1.038   115.9    59.7    16.8
2006 04 05    15 28.04   +36 34.9    0.168    1.104   124.5    48.3    18.1
2006 04 15    14 58.85   +40 51.5    0.257    1.172   125.7    44.0    19.0
2006 04 25    14 40.49   +41 25.1    0.350    1.240   125.1    41.6    19.7
2006 05 05    14 28.79   +40 14.1    0.446    1.309   123.5    40.0    20.3
2006 05 15    14 22.38   +38 04.2    0.546    1.375   121.2    38.9    20.8
2006 05 25    14 20.20   +35 20.0    0.650    1.440   118.4    38.2    21.3
2006 06 04    14 21.55   +32 15.3    0.758    1.503   115.2    37.6    21.7

Brian G. Marsden             (C) Copyright 2006 MPC           M.P.E.C. 2006-F35

Read MPEC 2006-F34 Read MPEC 2006-F36


Our Web policy. Index to the CBAT/MPC/ICQ pages.


Valid HTML 4.01!